Home > Weather > Grand Prairie > Past weeks

Flag for USA Past Weather in Grand Prairie, Texas, USA — Yesterday and Last 2 Weeks

Now
85 °F

Clear.


Feels Like: 87 °F
Forecast: 79 / 96 °F
Wind: 5 mph from Southeast

Location: Grand Prairie Municipal Airport

Current Time: Jul 1, 2016 at 10:58:58 PM

Latest Report: Jul 1, 2016 at 10:35 PM


Visibility: 10 mi

Pressure: 30.02 "Hg

Humidity: 51%

Dew Point: 65 °F

Location of Grand PrairieLocation

Past Weather in Grand Prairie — Graph

°F

Grand Prairie Temperature Yesterday

Maximum temperature yesterday: 93 °F (at 3:50 PM)
Minimum temperature yesterday: 77 °F (at 4:35 AM)
Average temperature yesterday: 84 °F

High & Low Weather Summary for the Past Weeks

 TemperatureHumidityPressure
High97 °F (Jun 27, 3:50 PM)100% (Jun 17, 6:50 AM)30.23 "Hg (Jun 17, 6:50 AM)
Low73 °F (Jun 19, 6:50 AM)30% (Jun 20, 6:50 PM)29.87 "Hg (Jun 17, 6:50 PM)
Average84 °F62%30.04 "Hg
* Reported Jun 16 9:15 PM — Jul 1 9:35 PM, Grand Prairie, Weather by CustomWeather, © 2016

Note: Actual official high and low records may vary slightly from our data, if they occured in-between our weather recording intervals... More about our weather records

Advertising

Grand Prairie Weather History for the Previous 24 Hours

Scroll right to see more
 ConditionsComfort  
Time TempWeatherWind HumidityBarometerVisibility
9:35 PM
Fri, Jul 1
87 °FSunny.6 mph49%29.98 "Hg10 mi
9:15 PM88 °FSunny.5 mph47%29.97 "Hg10 mi
8:55 PM89 °FSunny.7 mph46%29.97 "Hg10 mi
8:35 PM90 °FSunny.7 mph43%29.97 "Hg10 mi
8:15 PM91 °FSunny.8 mph40%29.97 "Hg10 mi
7:50 PM91 °FSunny.8 mph41%29.97 "Hg10 mi
6:50 PM93 °FSunny.8 mph32%29.97 "Hg10 mi
5:50 PM93 °FSunny.8 mph34%29.98 "Hg10 mi
4:50 PM93 °FSunny.6 mph36%29.99 "Hg10 mi
3:50 PM95 °FSunny.7 mph34%30.00 "Hg10 mi
2:50 PM93 °FSunny.7 mph36%30.02 "Hg10 mi
1:50 PM93 °FSunny.6 mph36%30.03 "Hg10 mi
12:50 PM91 °FSunny.5 mph38%30.05 "Hg10 mi
11:50 AM91 °FSunny.7 mph41%30.06 "Hg10 mi
10:50 AM90 °FSunny.7 mph46%30.06 "Hg10 mi
9:50 AM86 °FSunny.7 mph55%30.06 "Hg10 mi
8:50 AM82 °FSunny.7 mph58%30.05 "Hg10 mi
7:50 AM79 °FSunny.No wind65%30.04 "Hg10 mi
6:50 AM75 °FClear.No wind74%30.02 "Hg10 mi
6:35 AM77 °FClear.No wind69%30.02 "Hg10 mi
6:15 AM76 °FClear.No wind69%30.01 "Hg10 mi
5:55 AM77 °FClear.No wind68%30.01 "Hg10 mi
5:35 AM77 °FClear.3 mph68%30.01 "Hg10 mi
5:15 AM77 °FClear.No wind68%30.01 "Hg10 mi
4:55 AM77 °FClear.No wind67%30.00 "Hg10 mi
4:35 AM77 °FClear.3 mph67%30.00 "Hg10 mi
4:15 AM78 °FClear.No wind66%30.00 "Hg10 mi
3:55 AM78 °FClear.3 mph66%30.00 "Hg10 mi
3:35 AM79 °FClear.3 mph63%30.00 "Hg10 mi
3:15 AM79 °FClear.No wind63%30.00 "Hg10 mi
2:55 AM79 °FClear.No wind61%30.00 "Hg10 mi
2:35 AM80 °FClear.3 mph61%29.99 "Hg10 mi
2:15 AM80 °FClear.3 mph61%29.99 "Hg10 mi
1:55 AM82 °FClear.No wind60%30.00 "Hg10 mi
1:35 AM82 °FClear.3 mph60%30.00 "Hg10 mi
1:15 AM82 °FClear.No wind59%30.00 "Hg10 mi
12:55 AM82 °FClear.No wind58%29.99 "Hg10 mi
12:35 AM82 °FClear.No wind56%30.00 "Hg10 mi
12:15 AM83 °FClear.3 mph55%30.00 "Hg10 mi
11:55 PM
Thu, Jun 30
83 °FClear.No wind53%30.00 "Hg10 mi
11:35 PM83 °FClear.3 mph51%29.99 "Hg10 mi
11:15 PM84 °FClear.5 mph51%29.99 "Hg10 mi
10:55 PM84 °FClear.3 mph49%29.99 "Hg10 mi
10:35 PM84 °FClear.6 mph47%29.99 "Hg10 mi
10:15 PM85 °FClear.5 mph43%29.99 "Hg10 mi
Weather by CustomWeather, © 2016

See weather overviewHow to use our weather pages